Tracking 29892 objects as of 21-Nov-2024
HD Live streaming from Space Station
objects crossing your sky now

SL-6 R/B(2)

Track SL-6 R/B(2) now!


NORAD ID: 10167
Int'l Code: 1977-068D
Perigee: 933.8 km
Apogee: 39,581.7 km
Inclination: 63.5 °
Period: 720.8 minutes
Semi major axis: 26628 km
RCS: 6.0766 m2 (large)
Launch date: July 20, 1977
Source: Commonwealth of Independent States (former USSR) (CIS)
Launch site: PLESETSK MISSILE AND SPACE COMPLEX (PKMTR)

Note: This is a ROCKET BODY
Your satellite tracking list
Your tracking list is empty




NASA's NSSDC Master Catalog

Two Line Element Set (TLE):
1 10167U 77068D   24325.09818025 -.00001302  00000-0  00000-0 0  9999
2 10167  63.5324  39.0423 7256801  43.3496 354.8456  1.99791623269345
Source of the keplerian elements: AFSPC